Regional Weather Roundup
Issued by NWS

Home | Current Version | Previous Version | Text Only | Print | Product List | Glossary On
Versions: 1 2 3 4 5 6 7 8 9 10 11 12 13 14 15 16 17 18 19 20 21 22 23 24 25 26 27 28 29 30 31 32 33 34 35 36 37 38 39 40 41 42 43 44 45 46 47 48 49 50
000
ASUS43 KTOP 312308
RWRKS

WEATHER ROUNDUP FOR KANSAS
NATIONAL WEATHER SERVICE GOODLAND KS
600 PM CDT MON AUG 31 2015

NOTE:  "FAIR" INDICATES FEW OR NO CLOUDS BELOW 12,000 FEET WITH NO
SIGNIFICANT WEATHER AND/OR OBSTRUCTIONS TO VISIBILITY.

KSZ001>006-013>018-027>032-041>047-010000-
NORTHWEST KANSAS

CITY           SKY/WX    TMP DP  RH WIND       PRES   REMARKS
GOODLAND       SUNNY     95  44  17 E12G18    29.91F
HAYS           SUNNY     97  52  21 S17G25    29.87S
HILL CITY      MOSUNNY   99  49  18 S13       29.86S HX  96
RUSSELL        SUNNY     97  50  20 S15G29    29.86S
$$

KSZ061>065-074>080-084>089-010000-
SOUTHWEST KANSAS

CITY           SKY/WX    TMP DP  RH WIND       PRES   REMARKS
DODGE CITY     SUNNY     94  47  20 S20       29.91S
ELKHART          N/A     90  57  32 S14         N/A
GARDEN CITY    SUNNY     94  52  24 S16G24    29.89F
GREAT BEND     SUNNY     97  57  26 S14       29.88R HX  95
LIBERAL        SUNNY     93  52  24 S22G28    29.92S
PRATT          SUNNY     93  45  18 MISG      29.92R
$$

KSZ066>073-081>083-090>101-010000-
SOUTHEAST KANSAS

CITY           SKY/WX    TMP DP  RH WIND       PRES   REMARKS
CHANUTE        SUNNY     87  69  54 S14       29.96R
COFFEYVILLE    SUNNY     86  70  58 S9G20     29.96R
HUTCHINSON     SUNNY     92  62  36 SE9       29.91S
MEDICINE LODGE   N/A     95  55  26 S16G26    29.88S
NEWTON         SUNNY     91  63  38 SE12      29.96R
PARSONS        SUNNY     86  72  62 S8        29.97S
WICHITA INTL   MOSUNNY   94  58  29 S7        29.90S
WICHITA JABRA  SUNNY     90  63  40 S9        29.91S
WICHITA MCCONL SUNNY     92  64  38 SE8       29.91S
WINFIELD       SUNNY     91  64  40 SE18G26   29.92S
$$

KSZ007>012-019>026-033>040-048>060-102>105-010000-
NORTHEAST KANSAS

CITY           SKY/WX    TMP DP  RH WIND       PRES   REMARKS
CONCORDIA      SUNNY     90  63  40 SE12      29.88F
EMPORIA        SUNNY     88  68  51 S18       29.93S
LAWRENCE       SUNNY     88  70  55 S14       29.93S
MANHATTAN      SUNNY     92  62  36 S9        29.89S
MARYSVILLE     SUNNY    N/A N/A N/A S6        29.90S
OLATHE IND     SUNNY     86  70  58 S10       29.96S
OLATHE EXE     SUNNY     84  70  62 S9        29.95S
SALINA         SUNNY     92  63  38 S18       29.88F
TOPEKA BILLARD SUNNY     88  69  53 SE12      29.92S
TOPEKA FORBES  SUNNY     89  68  49 S10       29.93S
$$



USA.gov is the U.S. government's official web portal to all federal, state and local government web resources and services.